| time (UTC) | temp F | wind direction | speed MPH | gust MPH | rain 1hr in | rain 24hr in | rain mn in | humidity % | barometer mb |
| 20260901015749 | 70 | 328 | 0.0 | 0.0 | 0.00 | 0.00 | 0.00 | 79 | 1016.7 |
| 20260901015256 | 70 | 328 | 0.0 | 0.0 | 0.00 | 0.00 | 0.00 | 79 | 1016.7 |
| 20260901014803 | 70 | 328 | 0.0 | 0.0 | 0.00 | 0.00 | 0.00 | 79 | 1016.7 |
| 20260901014248 | 70 | 328 | 0.0 | 0.0 | 0.00 | 0.00 | 0.00 | 78 | 1016.7 |
| 20260901013800 | 70 | 328 | 0.0 | 0.0 | 0.00 | 0.00 | 0.00 | 78 | 1016.8 |
| 20260901013244 | 70 | 328 | 0.0 | 0.0 | 0.00 | 0.00 | 0.00 | 78 | 1016.8 |
| 20260901012746 | 71 | 328 | 0.0 | 0.0 | 0.00 | 0.00 | 0.00 | 78 | 1016.8 |
| 20260901012249 | 71 | 328 | 0.0 | 0.0 | 0.00 | 0.00 | 0.00 | 77 | 1017.0 |
| 20260901011753 | 71 | 328 | 0.0 | 0.0 | 0.00 | 0.00 | 0.00 | 77 | 1017.0 |
| 20260901011301 | 71 | 328 | 0.0 | 0.0 | 0.00 | 0.00 | 0.00 | 77 | 1017.0 |
| 20260901010749 | 71 | 328 | 0.0 | 0.0 | 0.00 | 0.00 | 0.00 | 77 | 1016.9 |
| 20260901010300 | 71 | 328 | 0.0 | 0.0 | 0.00 | 0.00 | 0.00 | 77 | 1016.9 |
| 20260901005746 | 71 | 328 | 0.0 | 0.0 | 0.00 | 0.00 | 0.00 | 77 | 1016.9 |
| 20260901005250 | 71 | 328 | 0.0 | 0.0 | 0.00 | 0.00 | 0.00 | 77 | 1016.8 |
| 20260901004757 | 71 | 328 | 0.0 | 0.0 | 0.00 | 0.00 | 0.00 | 76 | 1016.8 |
| 20260901004244 | 71 | 328 | 0.0 | 0.0 | 0.00 | 0.00 | 0.00 | 76 | 1016.8 |
| 20260901003812 | 71 | 328 | 0.0 | 0.0 | 0.00 | 0.00 | 0.00 | 76 | 1016.8 |
| 20260901003256 | 71 | 328 | 0.0 | 0.0 | 0.00 | 0.00 | 0.00 | 76 | 1016.8 |
| 20260901002801 | 72 | 328 | 0.0 | 0.0 | 0.00 | 0.00 | 0.00 | 75 | 1016.8 |
| 20260901002251 | 72 | 328 | 0.0 | 0.0 | 0.00 | 0.00 | 0.00 | 76 | 1016.8 |
| 20260901001757 | 72 | 328 | 0.0 | 0.0 | 0.00 | 0.00 | 0.00 | 75 | 1016.8 |
| 20260901001250 | 72 | 328 | 0.0 | 0.0 | 0.00 | 0.00 | 0.00 | 75 | 1016.8 |
| 20260901000756 | 72 | 328 | 0.0 | 0.0 | 0.00 | 0.00 | 0.00 | 75 | 1016.8 |
| 20260901000258 | 72 | 328 | 0.0 | 0.0 | 0.00 | 0.00 | 0.00 | 74 | 1016.8 |
| 20260831235801 | 72 | 328 | 0.0 | 0.0 | 0.00 | 0.00 | 0.00 | 74 | 1016.8 |
| 20260831235306 | 72 | 328 | 0.0 | 0.0 | 0.00 | 0.00 | 0.00 | 74 | 1016.9 |
| 20260831234752 | 72 | 328 | 0.0 | 0.0 | 0.00 | 0.00 | 0.00 | 74 | 1016.9 |
| 20260831234259 | 72 | 328 | 0.0 | 0.0 | 0.00 | 0.00 | 0.00 | 74 | 1016.9 |
| 20260831233749 | 73 | 328 | 0.0 | 0.0 | 0.00 | 0.00 | 0.00 | 74 | 1017.0 |
| 20260831233253 | 73 | 328 | 0.0 | 0.0 | 0.00 | 0.00 | 0.00 | 74 | 1017.0 |
| 20260831232758 | 73 | 328 | 0.0 | 0.0 | 0.00 | 0.00 | 0.00 | 73 | 1017.0 |
| 20260831232305 | 73 | 328 | 0.0 | 0.0 | 0.00 | 0.00 | 0.00 | 73 | 1017.2 |
| 20260831231809 | 73 | 328 | 0.0 | 0.0 | 0.00 | 0.00 | 0.00 | 73 | 1017.2 |
| 20260831231256 | 73 | 328 | 0.0 | 0.0 | 0.00 | 0.00 | 0.00 | 73 | 1017.2 |
| 20260831230803 | 73 | 328 | 0.0 | 0.0 | 0.00 | 0.00 | 0.00 | 72 | 1017.3 |
| 20260831230303 | 73 | 328 | 0.0 | 0.0 | 0.00 | 0.00 | 0.00 | 72 | 1017.3 |
| 20260831225750 | 73 | 328 | 0.0 | 1.0 | 0.00 | 0.00 | 0.00 | 72 | 1017.3 |
| 20260831225317 | 73 | 328 | 0.0 | 1.0 | 0.00 | 0.00 | 0.00 | 71 | 1017.3 |
| 20260831224748 | 73 | 328 | 0.0 | 0.0 | 0.00 | 0.00 | 0.00 | 71 | 1017.3 |
| 20260831224255 | 74 | 328 | 0.0 | 2.0 | 0.00 | 0.00 | 0.00 | 71 | 1017.3 |
| 20260831223800 | 74 | 328 | 0.0 | 2.0 | 0.00 | 0.00 | 0.00 | 70 | 1017.3 |
| 20260831223250 | 74 | 318 | 0.0 | 2.0 | 0.00 | 0.00 | 0.00 | 69 | 1017.3 |
| 20260831222753 | 74 | 315 | 0.0 | 1.0 | 0.00 | 0.00 | 0.00 | 69 | 1017.3 |
| 20260831222258 | 74 | 315 | 0.0 | 1.0 | 0.00 | 0.00 | 0.00 | 69 | 1017.3 |
| 20260831221805 | 74 | 315 | 0.0 | 2.0 | 0.00 | 0.00 | 0.00 | 70 | 1017.3 |
| 20260831221253 | 74 | 315 | 0.0 | 2.0 | 0.00 | 0.00 | 0.00 | 69 | 1017.3 |
| 20260831220802 | 75 | 307 | 0.0 | 1.0 | 0.00 | 0.00 | 0.00 | 69 | 1017.2 |
| 20260831220305 | 75 | 307 | 0.0 | 1.0 | 0.00 | 0.00 | 0.00 | 68 | 1017.2 |
| 20260831215800 | 75 | 307 | 0.0 | 1.0 | 0.00 | 0.00 | 0.00 | 69 | 1017.2 |
| 20260831215306 | 75 | 307 | 0.0 | 2.0 | 0.00 | 0.00 | 0.00 | 69 | 1017.2 |
| 20260831214751 | 75 | 307 | 0.0 | 2.0 | 0.00 | 0.00 | 0.00 | 69 | 1017.2 |
| 20260831214256 | 75 | 298 | 0.0 | 0.0 | 0.00 | 0.00 | 0.00 | 69 | 1017.2 |
| 20260831213744 | 75 | 298 | 0.0 | 2.0 | 0.00 | 0.00 | 0.00 | 69 | 1017.2 |
| 20260831213250 | 75 | 298 | 0.0 | 2.0 | 0.00 | 0.00 | 0.00 | 68 | 1017.2 |
| 20260831212759 | 75 | 296 | 0.0 | 0.0 | 0.00 | 0.00 | 0.00 | 68 | 1017.2 |
| 20260831212243 | 76 | 296 | 0.0 | 1.0 | 0.00 | 0.00 | 0.00 | 68 | 1017.2 |
| 20260831211816 | 76 | 296 | 0.0 | 3.0 | 0.00 | 0.00 | 0.00 | 67 | 1017.2 |
| 20260831211301 | 76 | 296 | 1.0 | 3.0 | 0.00 | 0.00 | 0.00 | 66 | 1017.2 |
| 20260831210757 | 76 | 292 | 0.0 | 2.0 | 0.00 | 0.00 | 0.00 | 66 | 1017.2 |
| 20260831210301 | 76 | 297 | 0.0 | 2.0 | 0.00 | 0.00 | 0.00 | 65 | 1017.2 |
| 20260831205807 | 76 | 297 | 0.0 | 4.0 | 0.00 | 0.00 | 0.00 | 65 | 1017.2 |
| 20260831205254 | 76 | 294 | 1.0 | 4.0 | 0.00 | 0.00 | 0.00 | 64 | 1017.2 |
| 20260831204757 | 77 | 324 | 0.0 | 2.0 | 0.00 | 0.00 | 0.00 | 63 | 1017.2 |
| 20260831204320 | 77 | 340 | 0.0 | 1.0 | 0.00 | 0.00 | 0.00 | 65 | 1017.2 |
| 20260831203749 | 77 | 340 | 0.0 | 3.0 | 0.00 | 0.00 | 0.00 | 63 | 1017.2 |
| 20260831203253 | 77 | 297 | 1.0 | 3.0 | 0.00 | 0.00 | 0.00 | 62 | 1017.2 |
| 20260831202758 | 77 | 257 | 1.0 | 3.0 | 0.00 | 0.00 | 0.00 | 61 | 1017.2 |
| 20260831202300 | 77 | 269 | 0.0 | 2.0 | 0.00 | 0.00 | 0.00 | 63 | 1017.2 |
| 20260831201824 | 77 | 255 | 0.0 | 1.0 | 0.00 | 0.00 | 0.00 | 64 | 1017.2 |
| 20260831201313 | 77 | 255 | 0.0 | 2.0 | 0.00 | 0.00 | 0.00 | 64 | 1017.2 |
| 20260831200758 | 77 | 286 | 1.0 | 3.0 | 0.00 | 0.00 | 0.00 | 63 | 1017.2 |
| 20260831200259 | 77 | 5 | 1.0 | 3.0 | 0.00 | 0.00 | 0.00 | 63 | 1017.2 |
| 20260831195807 | 77 | 315 | 0.0 | 2.0 | 0.00 | 0.00 | 0.00 | 64 | 1017.2 |
| 20260831195254 | 77 | 315 | 0.0 | 4.0 | 0.00 | 0.00 | 0.00 | 64 | 1017.5 |
| 20260831194803 | 77 | 315 | 0.0 | 4.0 | 0.00 | 0.00 | 0.00 | 62 | 1017.5 |
| 20260831194249 | 77 | 246 | 0.0 | 4.0 | 0.00 | 0.00 | 0.00 | 62 | 1017.5 |
| 20260831193745 | 77 | 337 | 0.0 | 2.0 | 0.00 | 0.00 | 0.00 | 62 | 1017.6 |
| 20260831193252 | 78 | 326 | 0.0 | 2.0 | 0.00 | 0.00 | 0.00 | 61 | 1017.6 |
| 20260831192757 | 78 | 217 | 0.0 | 3.0 | 0.00 | 0.00 | 0.00 | 61 | 1017.6 |
| 20260831192249 | 78 | 300 | 0.0 | 3.0 | 0.00 | 0.00 | 0.00 | 60 | 1017.7 |
| 20260831191810 | 78 | 239 | 1.0 | 3.0 | 0.00 | 0.00 | 0.00 | 59 | 1017.7 |
| 20260831191314 | 78 | 16 | 0.0 | 3.0 | 0.00 | 0.00 | 0.00 | 58 | 1017.7 |
| 20260831190803 | 78 | 223 | 1.0 | 3.0 | 0.00 | 0.00 | 0.00 | 58 | 1018.0 |
| 20260831190249 | 79 | 15 | 1.0 | 4.0 | 0.00 | 0.00 | 0.00 | 57 | 1018.0 |
| 20260831185759 | 79 | 321 | 1.0 | 4.0 | 0.00 | 0.00 | 0.00 | 57 | 1018.0 |
| 20260831185248 | 79 | 213 | 0.0 | 4.0 | 0.00 | 0.00 | 0.00 | 55 | 1018.2 |
| 20260831184757 | 80 | 244 | 1.0 | 3.0 | 0.00 | 0.00 | 0.00 | 55 | 1018.2 |
| 20260831184259 | 80 | 259 | 1.0 | 3.0 | 0.00 | 0.00 | 0.00 | 55 | 1018.2 |
| 20260831183804 | 80 | 304 | 1.0 | 3.0 | 0.00 | 0.00 | 0.00 | 55 | 1018.1 |
| 20260831183251 | 80 | 231 | 1.0 | 3.0 | 0.00 | 0.00 | 0.00 | 55 | 1018.1 |
| 20260831182759 | 80 | 229 | 1.0 | 3.0 | 0.00 | 0.00 | 0.00 | 53 | 1018.1 |
| 20260831182305 | 80 | 241 | 1.0 | 4.0 | 0.00 | 0.00 | 0.00 | 53 | 1018.1 |
| 20260831181746 | 80 | 44 | 0.0 | 4.0 | 0.00 | 0.00 | 0.00 | 53 | 1018.1 |
| 20260831181255 | 80 | 227 | 0.0 | 2.0 | 0.00 | 0.00 | 0.00 | 53 | 1018.1 |
| 20260831180801 | 80 | 227 | 0.0 | 3.0 | 0.00 | 0.00 | 0.00 | 52 | 1018.1 |
| 20260831180251 | 80 | 227 | 1.0 | 3.0 | 0.00 | 0.00 | 0.00 | 53 | 1018.1 |
| 20260831175802 | 80 | 227 | 0.0 | 3.0 | 0.00 | 0.00 | 0.00 | 55 | 1018.1 |
| 20260831175245 | 80 | 311 | 1.0 | 3.0 | 0.00 | 0.00 | 0.00 | 54 | 1018.3 |
| 20260831174748 | 79 | 14 | 0.0 | 3.0 | 0.00 | 0.00 | 0.00 | 56 | 1018.3 |
| 20260831174314 | 79 | 288 | 1.0 | 3.0 | 0.00 | 0.00 | 0.00 | 55 | 1018.3 |
| 20260831173758 | 79 | 317 | 1.0 | 3.0 | 0.00 | 0.00 | 0.00 | 56 | 1018.7 |
| 20260831173303 | 79 | 253 | 1.0 | 3.0 | 0.00 | 0.00 | 0.00 | 55 | 1018.7 |
| 20260831172749 | 79 | 285 | 1.0 | 3.0 | 0.00 | 0.00 | 0.00 | 52 | 1018.7 |
| 20260831172259 | 79 | 262 | 1.0 | 3.0 | 0.00 | 0.00 | 0.00 | 55 | 1018.8 |
| 20260831171804 | 79 | 68 | 0.0 | 4.0 | 0.00 | 0.00 | 0.00 | 56 | 1018.8 |
| 20260831171305 | 79 | 229 | 1.0 | 4.0 | 0.00 | 0.00 | 0.00 | 51 | 1018.8 |
| 20260831170756 | 79 | 161 | 1.0 | 4.0 | 0.00 | 0.00 | 0.00 | 55 | 1019.0 |
| 20260831170323 | 78 | 121 | 1.0 | 4.0 | 0.00 | 0.00 | 0.00 | 56 | 1019.0 |
| 20260831165750 | 78 | 108 | 1.0 | 4.0 | 0.00 | 0.00 | 0.00 | 55 | 1019.0 |
| 20260831165255 | 78 | 259 | 1.0 | 4.0 | 0.00 | 0.00 | 0.00 | 57 | 1019.2 |
| 20260831164803 | 77 | 150 | 0.0 | 3.0 | 0.00 | 0.00 | 0.00 | 57 | 1019.2 |
| 20260831164249 | 77 | 254 | 1.0 | 3.0 | 0.00 | 0.00 | 0.00 | 59 | 1019.2 |
| 20260831163753 | 77 | 239 | 1.0 | 3.0 | 0.00 | 0.00 | 0.00 | 60 | 1019.4 |
| 20260831163254 | 77 | 237 | 1.0 | 4.0 | 0.00 | 0.00 | 0.00 | 59 | 1019.4 |
| 20260831162758 | 76 | 230 | 2.0 | 4.0 | 0.00 | 0.00 | 0.00 | 59 | 1019.4 |
| 20260831162246 | 76 | 232 | 0.0 | 2.0 | 0.00 | 0.00 | 0.00 | 60 | 1019.5 |
| 20260831161756 | 76 | 226 | 1.0 | 3.0 | 0.00 | 0.00 | 0.00 | 59 | 1019.5 |
| 20260831161246 | 75 | 226 | 1.0 | 3.0 | 0.00 | 0.00 | 0.00 | 62 | 1019.5 |
| 20260831160800 | 75 | 191 | 0.0 | 2.0 | 0.00 | 0.00 | 0.00 | 61 | 1019.7 |
| 20260831160253 | 75 | 191 | 1.0 | 2.0 | 0.00 | 0.00 | 0.00 | 61 | 1019.7 |
| 20260831155813 | 74 | 188 | 0.0 | 0.0 | 0.00 | 0.00 | 0.00 | 63 | 1019.7 |
| 20260831155246 | 74 | 188 | 0.0 | 0.0 | 0.00 | 0.00 | 0.00 | 62 | 1019.8 |
| 20260831154746 | 74 | 188 | 0.0 | 0.0 | 0.00 | 0.00 | 0.00 | 60 | 1019.8 |
| 20260831154244 | 75 | 188 | 0.0 | 1.0 | 0.00 | 0.00 | 0.00 | 60 | 1019.8 |
| 20260831153802 | 75 | 188 | 0.0 | 1.0 | 0.00 | 0.00 | 0.00 | 59 | 1019.6 |
| 20260831153302 | 75 | 169 | 0.0 | 1.0 | 0.00 | 0.00 | 0.00 | 59 | 1019.6 |
| 20260831152759 | 75 | 169 | 0.0 | 1.0 | 0.00 | 0.00 | 0.00 | 62 | 1019.6 |
| 20260831152305 | 75 | 169 | 0.0 | 0.0 | 0.00 | 0.00 | 0.00 | 63 | 1019.5 |
| 20260831151745 | 75 | 169 | 0.0 | 1.0 | 0.00 | 0.00 | 0.00 | 65 | 1019.5 |
| 20260831151307 | 75 | 169 | 0.0 | 1.0 | 0.00 | 0.00 | 0.00 | 64 | 1019.5 |
| 20260831150747 | 75 | 169 | 0.0 | 1.0 | 0.00 | 0.00 | 0.00 | 69 | 1019.7 |
| 20260831150249 | 75 | 169 | 0.0 | 1.0 | 0.00 | 0.00 | 0.00 | 66 | 1019.7 |
| 20260831145757 | 75 | 188 | 0.0 | 0.0 | 0.00 | 0.00 | 0.00 | 67 | 1019.7 |
| 20260831145320 | 75 | 190 | 0.0 | 2.0 | 0.00 | 0.00 | 0.00 | 67 | 1019.8 |
| 20260831144744 | 75 | 190 | 0.0 | 2.0 | 0.00 | 0.00 | 0.00 | 65 | 1019.8 |
| 20260831144250 | 74 | 190 | 1.0 | 2.0 | 0.00 | 0.00 | 0.00 | 67 | 1019.8 |
| 20260831143755 | 74 | 161 | 1.0 | 3.0 | 0.00 | 0.00 | 0.00 | 68 | 1019.7 |
| 20260831143309 | 74 | 161 | 0.0 | 3.0 | 0.00 | 0.00 | 0.00 | 70 | 1019.7 |
| 20260831142748 | 74 | 184 | 0.0 | 3.0 | 0.00 | 0.00 | 0.00 | 70 | 1019.7 |
| 20260831142252 | 74 | 248 | 1.0 | 3.0 | 0.00 | 0.00 | 0.00 | 71 | 1019.8 |
| 20260831141753 | 74 | 243 | 0.0 | 3.0 | 0.00 | 0.00 | 0.00 | 71 | 1019.8 |
| 20260831141258 | 74 | 242 | 1.0 | 3.0 | 0.00 | 0.00 | 0.00 | 71 | 1019.8 |
| 20260831140756 | 74 | 70 | 0.0 | 2.0 | 0.00 | 0.00 | 0.00 | 72 | 1019.8 |
| 20260831140245 | 73 | 67 | 0.0 | 2.0 | 0.00 | 0.00 | 0.00 | 73 | 1019.8 |
| 20260831135805 | 73 | 178 | 0.0 | 3.0 | 0.00 | 0.00 | 0.00 | 73 | 1019.8 |
| 20260831135247 | 73 | 204 | 0.0 | 3.0 | 0.00 | 0.00 | 0.00 | 74 | 1019.7 |
| 20260831134814 | 73 | 68 | 0.0 | 2.0 | 0.00 | 0.00 | 0.00 | 75 | 1019.7 |
| 20260831134257 | 72 | 61 | 0.0 | 0.0 | 0.00 | 0.00 | 0.00 | 76 | 1019.7 |
| 20260831133755 | 72 | 61 | 0.0 | 0.0 | 0.00 | 0.00 | 0.00 | 77 | 1019.6 |
| 20260831133257 | 71 | 61 | 0.0 | 0.0 | 0.00 | 0.00 | 0.00 | 80 | 1019.6 |
| 20260831132817 | 71 | 61 | 0.0 | 1.0 | 0.00 | 0.00 | 0.00 | 82 | 1019.6 |
| 20260831132300 | 70 | 61 | 0.0 | 2.0 | 0.00 | 0.00 | 0.00 | 83 | 1019.7 |
| 20260831131805 | 69 | 61 | 0.0 | 2.0 | 0.00 | 0.00 | 0.00 | 84 | 1019.7 |
| 20260831131245 | 68 | 219 | 0.0 | 0.0 | 0.00 | 0.00 | 0.00 | 88 | 1019.7 |
| 20260831130809 | 68 | 219 | 0.0 | 0.0 | 0.00 | 0.00 | 0.00 | 90 | 1019.8 |
| 20260831130254 | 67 | 219 | 0.0 | 0.0 | 0.00 | 0.00 | 0.00 | 92 | 1019.8 |
| 20260831125754 | 66 | 219 | 0.0 | 0.0 | 0.00 | 0.00 | 0.00 | 92 | 1019.8 |
| 20260831125257 | 66 | 219 | 0.0 | 0.0 | 0.00 | 0.00 | 0.00 | 94 | 1019.7 |
| 20260831124801 | 65 | 219 | 0.0 | 0.0 | 0.00 | 0.00 | 0.00 | 95 | 1019.7 |
| 20260831124259 | 65 | 219 | 0.0 | 0.0 | 0.00 | 0.00 | 0.00 | 95 | 1019.7 |
| 20260831123803 | 64 | 219 | 0.0 | 0.0 | 0.00 | 0.00 | 0.00 | 96 | 1019.7 |
| 20260831123250 | 63 | 219 | 0.0 | 0.0 | 0.00 | 0.00 | 0.00 | 96 | 1019.7 |
| 20260831122811 | 63 | 219 | 0.0 | 0.0 | 0.00 | 0.00 | 0.00 | 96 | 1019.7 |
| 20260831122252 | 62 | 219 | 0.0 | 1.0 | 0.00 | 0.00 | 0.00 | 96 | 1019.8 |
| 20260831121753 | 61 | 360 | 0.0 | 1.0 | 0.00 | 0.00 | 0.00 | 95 | 1019.8 |
| 20260831121301 | 61 | 360 | 0.0 | 0.0 | 0.00 | 0.00 | 0.00 | 95 | 1019.8 |
| 20260831120745 | 60 | 360 | 0.0 | 0.0 | 0.00 | 0.00 | 0.00 | 94 | 1019.5 |
| 20260831120251 | 60 | 219 | 0.0 | 0.0 | 0.00 | 0.00 | 0.00 | 94 | 1019.5 |
| 20260831115756 | 60 | 219 | 0.0 | 0.0 | 0.00 | 0.00 | 0.00 | 94 | 1019.5 |
| 20260831115323 | 60 | 219 | 0.0 | 0.0 | 0.00 | 0.00 | 0.00 | 94 | 1019.4 |
| 20260831114746 | 59 | 219 | 0.0 | 0.0 | 0.00 | 0.00 | 0.00 | 94 | 1019.4 |
| 20260831114256 | 59 | 219 | 0.0 | 0.0 | 0.00 | 0.00 | 0.00 | 93 | 1019.4 |
| 20260831113745 | 59 | 219 | 0.0 | 0.0 | 0.00 | 0.00 | 0.00 | 93 | 1019.3 |
| 20260831113252 | 59 | 219 | 0.0 | 0.0 | 0.00 | 0.00 | 0.00 | 93 | 1019.3 |
| 20260831112759 | 59 | 219 | 0.0 | 0.0 | 0.00 | 0.00 | 0.00 | 93 | 1019.3 |
| 20260831112301 | 59 | 219 | 0.0 | 0.0 | 0.00 | 0.00 | 0.00 | 93 | 1019.3 |
| 20260831111822 | 59 | 219 | 0.0 | 0.0 | 0.00 | 0.00 | 0.00 | 92 | 1019.3 |
| 20260831111248 | 59 | 219 | 0.0 | 0.0 | 0.00 | 0.00 | 0.00 | 92 | 1019.3 |
| 20260831110750 | 59 | 219 | 0.0 | 0.0 | 0.00 | 0.00 | 0.00 | 92 | 1019.0 |
| 20260831110257 | 59 | 219 | 0.0 | 0.0 | 0.00 | 0.00 | 0.00 | 92 | 1019.0 |
| 20260831105743 | 59 | 219 | 0.0 | 0.0 | 0.00 | 0.00 | 0.00 | 92 | 1019.0 |
| 20260831105255 | 59 | 219 | 0.0 | 0.0 | 0.00 | 0.00 | 0.00 | 92 | 1018.9 |
| 20260831104801 | 60 | 219 | 0.0 | 0.0 | 0.00 | 0.00 | 0.00 | 92 | 1018.9 |
| 20260831104304 | 60 | 219 | 0.0 | 0.0 | 0.00 | 0.00 | 0.00 | 92 | 1018.9 |
| 20260831103806 | 60 | 219 | 0.0 | 0.0 | 0.00 | 0.00 | 0.00 | 92 | 1018.7 |
| 20260831103253 | 60 | 219 | 0.0 | 2.0 | 0.00 | 0.00 | 0.00 | 92 | 1018.7 |
| 20260831102819 | 60 | 219 | 0.0 | 2.0 | 0.00 | 0.00 | 0.00 | 92 | 1018.7 |
| 20260831102246 | 60 | 219 | 0.0 | 0.0 | 0.00 | 0.00 | 0.00 | 92 | 1018.6 |
| 20260831101811 | 60 | 219 | 0.0 | 0.0 | 0.00 | 0.00 | 0.00 | 92 | 1018.6 |
| 20260831101251 | 60 | 219 | 0.0 | 1.0 | 0.00 | 0.00 | 0.00 | 92 | 1018.6 |
| 20260831100811 | 60 | 219 | 0.0 | 1.0 | 0.00 | 0.00 | 0.00 | 92 | 1018.8 |
| 20260831100303 | 60 | 219 | 0.0 | 0.0 | 0.00 | 0.00 | 0.00 | 92 | 1018.8 |
| 20260831095755 | 61 | 219 | 0.0 | 0.0 | 0.00 | 0.00 | 0.00 | 91 | 1018.8 |
| 20260831095243 | 61 | 219 | 0.0 | 0.0 | 0.00 | 0.00 | 0.00 | 91 | 1018.8 |
| 20260831094756 | 61 | 219 | 0.0 | 0.0 | 0.00 | 0.00 | 0.00 | 91 | 1018.8 |
| 20260831094245 | 61 | 219 | 0.0 | 0.0 | 0.00 | 0.00 | 0.00 | 91 | 1018.8 |
| 20260831093750 | 61 | 219 | 0.0 | 0.0 | 0.00 | 0.00 | 0.00 | 91 | 1018.6 |
| 20260831093254 | 61 | 219 | 0.0 | 0.0 | 0.00 | 0.00 | 0.00 | 91 | 1018.6 |
| 20260831092742 | 61 | 219 | 0.0 | 0.0 | 0.00 | 0.00 | 0.00 | 91 | 1018.6 |
| 20260831092313 | 61 | 219 | 0.0 | 0.0 | 0.00 | 0.00 | 0.00 | 91 | 1018.4 |
| 20260831091801 | 61 | 219 | 0.0 | 0.0 | 0.00 | 0.00 | 0.00 | 91 | 1018.4 |
| 20260831091309 | 61 | 219 | 0.0 | 1.0 | 0.00 | 0.00 | 0.00 | 91 | 1018.4 |
| 20260831090757 | 61 | 219 | 0.0 | 1.0 | 0.00 | 0.00 | 0.00 | 91 | 1018.2 |
| 20260831090304 | 61 | 219 | 0.0 | 0.0 | 0.00 | 0.00 | 0.00 | 91 | 1018.2 |
| 20260831085809 | 62 | 219 | 0.0 | 0.0 | 0.00 | 0.00 | 0.00 | 91 | 1018.2 |
| 20260831085312 | 62 | 219 | 0.0 | 0.0 | 0.00 | 0.00 | 0.00 | 90 | 1018.1 |
| 20260831084756 | 62 | 219 | 0.0 | 0.0 | 0.00 | 0.00 | 0.00 | 90 | 1018.1 |
| 20260831084248 | 62 | 219 | 0.0 | 0.0 | 0.00 | 0.00 | 0.00 | 90 | 1018.1 |
| 20260831083757 | 62 | 219 | 0.0 | 0.0 | 0.00 | 0.00 | 0.00 | 90 | 1018.0 |
| 20260831083250 | 62 | 219 | 0.0 | 0.0 | 0.00 | 0.00 | 0.00 | 90 | 1018.0 |
| 20260831082801 | 62 | 219 | 0.0 | 0.0 | 0.00 | 0.00 | 0.00 | 90 | 1018.0 |
| 20260831082255 | 62 | 219 | 0.0 | 0.0 | 0.00 | 0.00 | 0.00 | 90 | 1018.2 |
| 20260831081818 | 62 | 219 | 0.0 | 0.0 | 0.00 | 0.00 | 0.00 | 90 | 1018.2 |
| 20260831081304 | 62 | 219 | 0.0 | 0.0 | 0.00 | 0.00 | 0.00 | 90 | 1018.2 |
| 20260831080811 | 62 | 219 | 0.0 | 0.0 | 0.00 | 0.00 | 0.00 | 90 | 1018.0 |
| 20260831080252 | 62 | 219 | 0.0 | 0.0 | 0.00 | 0.00 | 0.00 | 90 | 1018.0 |
| 20260831075758 | 62 | 219 | 0.0 | 0.0 | 0.00 | 0.00 | 0.00 | 90 | 1018.0 |
| 20260831075306 | 62 | 219 | 0.0 | 0.0 | 0.00 | 0.00 | 0.00 | 90 | 1017.8 |
| 20260831074748 | 63 | 219 | 0.0 | 0.0 | 0.00 | 0.00 | 0.00 | 90 | 1017.8 |
| 20260831074258 | 63 | 219 | 0.0 | 0.0 | 0.00 | 0.00 | 0.00 | 90 | 1017.8 |
| 20260831073825 | 63 | 219 | 0.0 | 0.0 | 0.00 | 0.00 | 0.00 | 90 | 1017.8 |
| 20260831073251 | 63 | 219 | 0.0 | 0.0 | 0.00 | 0.00 | 0.00 | 90 | 1017.8 |
| 20260831072759 | 63 | 219 | 0.0 | 0.0 | 0.00 | 0.00 | 0.00 | 90 | 1017.8 |
| 20260831072301 | 63 | 219 | 0.0 | 0.0 | 0.00 | 0.00 | 0.00 | 89 | 1017.8 |
| 20260831071745 | 63 | 219 | 0.0 | 0.0 | 0.00 | 0.00 | 0.00 | 89 | 1017.8 |
| 20260831071251 | 63 | 219 | 0.0 | 0.0 | 0.00 | 0.00 | 0.00 | 88 | 1017.8 |
| 20260831070757 | 63 | 219 | 0.0 | 0.0 | 0.00 | 0.00 | 0.00 | 88 | 1017.7 |
| 20260831070259 | 63 | 219 | 0.0 | 0.0 | 0.00 | 0.00 | 0.00 | 88 | 1017.7 |
| 20260831065759 | 63 | 219 | 0.0 | 0.0 | 0.00 | 0.00 | 0.00 | 87 | 1017.7 |
| 20260831065300 | 63 | 219 | 0.0 | 0.0 | 0.00 | 0.00 | 0.00 | 87 | 1017.4 |
| 20260831064820 | 63 | 219 | 0.0 | 0.0 | 0.00 | 0.00 | 0.00 | 87 | 1017.4 |
| 20260831064258 | 63 | 219 | 0.0 | 0.0 | 0.00 | 0.00 | 0.00 | 87 | 1017.4 |
| 20260831063758 | 64 | 219 | 0.0 | 0.0 | 0.00 | 0.00 | 0.00 | 87 | 1017.5 |
| 20260831063317 | 64 | 219 | 0.0 | 0.0 | 0.00 | 0.00 | 0.00 | 87 | 1017.5 |
| 20260831062755 | 64 | 219 | 0.0 | 0.0 | 0.00 | 0.00 | 0.00 | 86 | 1017.5 |
| 20260831062252 | 64 | 219 | 0.0 | 0.0 | 0.00 | 0.00 | 0.00 | 86 | 1017.6 |
| 20260831061753 | 64 | 219 | 0.0 | 0.0 | 0.00 | 0.00 | 0.00 | 85 | 1017.6 |
| 20260831061312 | 64 | 219 | 0.0 | 0.0 | 0.00 | 0.00 | 0.00 | 85 | 1017.6 |
| 20260831060800 | 64 | 219 | 0.0 | 0.0 | 0.00 | 0.00 | 0.00 | 85 | 1017.5 |
| 20260831060318 | 65 | 219 | 0.0 | 0.0 | 0.00 | 0.00 | 0.00 | 85 | 1017.5 |
| 20260831055758 | 65 | 219 | 0.0 | 0.0 | 0.00 | 0.00 | 0.00 | 85 | 1017.5 |
| 20260831055256 | 65 | 219 | 0.0 | 0.0 | 0.00 | 0.00 | 0.00 | 84 | 1017.5 |
| 20260831054800 | 65 | 219 | 0.0 | 0.0 | 0.00 | 0.00 | 0.00 | 83 | 1017.5 |
| 20260831054255 | 65 | 219 | 0.0 | 0.0 | 0.00 | 0.00 | 0.00 | 83 | 1017.5 |
| 20260831053819 | 65 | 219 | 0.0 | 0.0 | 0.00 | 0.00 | 0.00 | 83 | 1017.3 |
| 20260831053303 | 66 | 219 | 0.0 | 0.0 | 0.00 | 0.00 | 0.00 | 82 | 1017.3 |
| 20260831052803 | 66 | 219 | 0.0 | 0.0 | 0.00 | 0.00 | 0.00 | 82 | 1017.3 |
| 20260831052307 | 66 | 219 | 0.0 | 0.0 | 0.00 | 0.00 | 0.00 | 81 | 1017.3 |
| 20260831051802 | 66 | 219 | 0.0 | 0.0 | 0.00 | 0.00 | 0.00 | 81 | 1017.3 |
| 20260831051254 | 66 | 219 | 0.0 | 0.0 | 0.00 | 0.00 | 0.00 | 81 | 1017.3 |
| 20260831050757 | 67 | 219 | 0.0 | 0.0 | 0.00 | 0.00 | 0.00 | 81 | 1017.3 |
| 20260831050249 | 67 | 219 | 0.0 | 0.0 | 0.00 | 0.00 | 0.00 | 80 | 1017.3 |
| 20260831045750 | 67 | 219 | 0.0 | 0.0 | 0.00 | 0.00 | 0.00 | 80 | 1017.3 |
| 20260831045251 | 67 | 219 | 0.0 | 0.0 | 0.00 | 0.00 | 0.00 | 80 | 1017.2 |
| 20260831044804 | 67 | 219 | 0.0 | 0.0 | 0.00 | 0.00 | 0.00 | 79 | 1017.2 |
| 20260831044245 | 68 | 219 | 0.0 | 0.0 | 0.00 | 0.00 | 0.00 | 79 | 1017.2 |
| 20260831043809 | 68 | 219 | 0.0 | 0.0 | 0.00 | 0.00 | 0.00 | 79 | 1017.0 |
| 20260831043309 | 68 | 219 | 0.0 | 0.0 | 0.00 | 0.00 | 0.00 | 79 | 1017.0 |
| 20260831042751 | 68 | 219 | 0.0 | 0.0 | 0.00 | 0.00 | 0.00 | 79 | 1017.0 |
| 20260831042252 | 68 | 219 | 0.0 | 1.0 | 0.00 | 0.00 | 0.00 | 79 | 1017.0 |
| 20260831041755 | 68 | 219 | 0.0 | 1.0 | 0.00 | 0.00 | 0.00 | 78 | 1017.0 |
| 20260831041252 | 69 | 219 | 0.0 | 0.0 | 0.00 | 0.00 | 0.00 | 78 | 1017.0 |
| 20260831040750 | 69 | 219 | 0.0 | 0.0 | 0.00 | 0.00 | 0.00 | 78 | 1016.9 |
| 20260831040251 | 69 | 219 | 0.0 | 0.0 | 0.00 | 0.00 | 0.00 | 78 | 1016.9 |
| 20260831035747 | 69 | 219 | 0.0 | 1.0 | 0.00 | 0.00 | 0.00 | 78 | 1016.9 |
| 20260831035306 | 69 | 219 | 0.0 | 1.0 | 0.00 | 0.00 | 0.00 | 77 | 1016.8 |
| 20260831034744 | 69 | 219 | 0.0 | 3.0 | 0.00 | 0.00 | 0.00 | 77 | 1016.8 |
| 20260831034247 | 69 | 219 | 0.0 | 3.0 | 0.00 | 0.00 | 0.00 | 77 | 1016.8 |
| 20260831033751 | 69 | 219 | 0.0 | 0.0 | 0.00 | 0.00 | 0.00 | 76 | 1017.1 |
| 20260831033251 | 69 | 219 | 0.0 | 0.0 | 0.00 | 0.00 | 0.00 | 76 | 1017.1 |
| 20260831032753 | 70 | 219 | 0.0 | 0.0 | 0.00 | 0.00 | 0.00 | 76 | 1017.1 |
| 20260831032316 | 70 | 219 | 0.0 | 2.0 | 0.00 | 0.00 | 0.00 | 76 | 1017.0 |
| 20260831031819 | 70 | 219 | 0.0 | 3.0 | 0.00 | 0.00 | 0.00 | 76 | 1017.0 |
| 20260831031301 | 70 | 219 | 1.0 | 3.0 | 0.00 | 0.00 | 0.00 | 76 | 1017.0 |
| 20260831030745 | 70 | 219 | 0.0 | 0.0 | 0.00 | 0.00 | 0.00 | 75 | 1016.9 |
| 20260831030304 | 70 | 219 | 0.0 | 0.0 | 0.00 | 0.00 | 0.00 | 75 | 1016.9 |
| 20260831025800 | 70 | 219 | 0.0 | 0.0 | 0.00 | 0.00 | 0.00 | 75 | 1016.9 |
| 20260831025242 | 71 | 219 | 0.0 | 0.0 | 0.00 | 0.00 | 0.00 | 75 | 1016.8 |
| 20260831024803 | 71 | 219 | 0.0 | 0.0 | 0.00 | 0.00 | 0.00 | 75 | 1016.8 |
| 20260831024249 | 71 | 219 | 0.0 | 0.0 | 0.00 | 0.00 | 0.00 | 75 | 1016.8 |
| 20260831023751 | 71 | 219 | 0.0 | 1.0 | 0.00 | 0.00 | 0.00 | 75 | 1016.7 |
| 20260831023252 | 71 | 219 | 0.0 | 2.0 | 0.00 | 0.00 | 0.00 | 75 | 1016.7 |
| 20260831022755 | 71 | 219 | 1.0 | 2.0 | 0.00 | 0.00 | 0.00 | 74 | 1016.7 |
| 20260831022253 | 71 | 219 | 0.0 | 1.0 | 0.00 | 0.00 | 0.00 | 74 | 1016.5 |
| 20260831021756 | 71 | 219 | 0.0 | 2.0 | 0.00 | 0.00 | 0.00 | 74 | 1016.5 |
| 20260831021254 | 71 | 219 | 0.0 | 4.0 | 0.00 | 0.00 | 0.00 | 73 | 1016.5 |
| 20260831020753 | 71 | 229 | 0.0 | 1.0 | 0.00 | 0.00 | 0.00 | 73 | 1016.9 |
| 20260831020245 | 71 | 229 | 0.0 | 1.0 | 0.00 | 0.00 | 0.00 | 73 | 1016.9 |